Tracking 19489 objects as of 23-Jan-2019
HD Live streaming from Space Station
objects crossing your sky now

PSLV R/B

Track PSLV R/B now!
10-day predictions
PSLV R/B is classified as:


NORAD ID: 41470
Int'l Code: 2016-027B
Perigee: 332.7 km
Apogee: 20,603.0 km
Inclination: 17.8 °
Period: 362.4 minutes
Semi major axis: 16838 km
RCS: Unknown
Launch date: April 28, 2016
Source: India (IND)
Launch site: SRIHARIKOTA (SRI)

Note: This is a ROCKET BODY
aabbcc
Your satellite tracking list
Your tracking list is empty




NASA's NSSDC Master Catalog

Two Line Element Set (TLE):
1 41470U 16027B   19022.20842411  .00000913  00000-0  31923-3 0  9992
2 41470  17.8330 210.1795 6018918 195.7297 131.2770  3.97315012 39585
Source of the keplerian elements: AFSPC